Weather Service Report


041 
ASUS41 KCLE 300610
RWRCLE
OHIO REGIONAL WEATHER ROUNDUP
NATIONAL WEATHER SERVICE CLEVELAND, OH
200 AM EDT SUN AUG 30 2015

NOTE: "FAIR" INDICATES FEW OR NO CLOUDS BELOW 12,000 FEET WITH NO
SIGNIFICANT WEATHER AND/OR OBSTRUCTIONS TO VISIBILITY.

OHZ001>008-015>018-024>027-034-035-043-044-300700-
   NORTHWEST OHIO
  
CITY           SKY/WX    TMP DP  RH WIND       PRES   REMARKS
DEFIANCE       CLOUDY    68  65  90 S3        30.05F                  
FINDLAY        FAIR      71  68  90 CALM      30.06S FOG              
TOLEDO EXPRESS LGT RAIN  67  67 100 E5        30.05F FOG              
TOLEDO EXEC    MOCLDY    70  67  90 NW3       30.07F FOG              
LIMA           FAIR      67  65  93 CALM      30.06F                  
$$

OHZ009>014-019>023-028>033-038-089-300700-
   NORTHEAST OHIO
  
CITY           SKY/WX    TMP DP  RH WIND       PRES   REMARKS
CLE-HOPKINS    TSTM      68  64  87 S10       30.09F                  
CLE-LAKEFRONT  CLOUDY    69  66  90 S9        30.07S FOG              
CUY CO. ARPT   NOT AVBL                                               
LORAIN-ELYRIA  LGT RAIN  67  64  90 S3        30.07F                  
ASHTABULA      CLOUDY    67  65  93 CALM      30.10R                  
AKRON-CANTON   CLOUDY    72  64  76 CALM      30.07F                  
WOOSTER        FAIR      69  64  84 N3        30.08F                  
MANSFIELD      FAIR      68  66  93 CALM      30.09F                  
YOUNGSTOWN     CLOUDY    67  64  90 E7        30.08F                  
$$

OHZ042-051>053-060>062-070>072-077>081-300700-
  SOUTHWEST OHIO
  
CITY           SKY/WX    TMP DP  RH WIND       PRES   REMARKS
CINC-COVINGTON FAIR      69  66  90 S6        30.09S                  
CINC-LUNKEN    FAIR      67  67 100 CALM      30.08S FOG              
HAMILTON       MOCLDY    72  67  84 NW5       30.09S                  
DAYTON         CLOUDY    71  65  81 S10       30.09S                  
WRIGHT-PAT AFB RAIN      69  67  94 S6        30.08F                  
DAYTON GENERAL MOCLDY    68  65  90 CALM      30.08F                  
WILMINGTON     MOCLDY    70  65  84 W8        30.10R                  
$$

OHZ036-037-039>041-045>050-054>059-063>069-073>076-082>088-300700-
  CENTRAL AND SOUTHEAST OHIO
  
CITY           SKY/WX    TMP DP  RH WIND       PRES   REMARKS
COLUMBUS       CLOUDY    72  68  87 SW14G23   30.07S THUNDER FOG      
OSU AIRPORT    FAIR      72  67  84 SW9       30.07S THUNDER          
BOLTON FIELD   TSTM      68  62  79 NW14G21   30.08S                  
RICKENBACK AFB FAIR      71  67  88 S6        30.06F THUNDER          
NEWARK         MOCLDY    69  67  93 NW9       30.08R                  
MARION         FAIR      68  64  87 CALM      30.07F                  
LANCASTER      CLOUDY    71  66  84 NW5       30.08R                  
ZANESVILLE     FAIR      69  63  81 CALM      30.08F                  
NEW PHILLY     FAIR      68  66  93 SE3       30.08F                  
$$


108 
ASUS41 KCLE 300610
RWRCLE
OHIO REGIONAL WEATHER ROUNDUP
NATIONAL WEATHER SERVICE WILMINGTON, OH
200 AM EDT SUN AUG 30 2015

NOTE: "FAIR" INDICATES FEW OR NO CLOUDS BELOW 12,000 FEET WITH NO
SIGNIFICANT WEATHER AND/OR OBSTRUCTIONS TO VISIBILITY.

OHZ001>008-015>018-024>027-034-035-043-044-300700-
   NORTHWEST OHIO
  
CITY           SKY/WX    TMP DP  RH WIND       PRES   REMARKS
DEFIANCE       CLOUDY    68  65  90 S3        30.05F                  
FINDLAY        FAIR      71  68  90 CALM      30.06S FOG              
TOLEDO EXPRESS LGT RAIN  67  67 100 E5        30.05F FOG              
TOLEDO EXEC    MOCLDY    70  67  90 NW3       30.07F FOG              
LIMA           FAIR      67  65  93 CALM      30.06F                  
$$
 
OHZ009>014-019>023-028>033-038-089-300700-
   NORTHEAST OHIO
  
CITY           SKY/WX    TMP DP  RH WIND       PRES   REMARKS
CLE-HOPKINS    TSTM      68  64  87 S10       30.09F                  
CLE-LAKEFRONT  CLOUDY    69  66  90 S9        30.07S FOG              
CUY CO. ARPT   NOT AVBL                                               
LORAIN-ELYRIA  LGT RAIN  67  64  90 S3        30.07F                  
ASHTABULA      CLOUDY    67  65  93 CALM      30.10R                  
AKRON-CANTON   CLOUDY    72  64  76 CALM      30.07F                  
WOOSTER        FAIR      69  64  84 N3        30.08F                  
MANSFIELD      FAIR      68  66  93 CALM      30.09F                  
YOUNGSTOWN     CLOUDY    67  64  90 E7        30.08F                  
$$
 
OHZ042-051>053-060>062-070>072-077>081-300700-
  SOUTHWEST OHIO
  
CITY           SKY/WX    TMP DP  RH WIND       PRES   REMARKS
CINC-COVINGTON FAIR      69  66  90 S6        30.09S                  
CINC-LUNKEN    FAIR      67  67 100 CALM      30.08S FOG              
HAMILTON       MOCLDY    72  67  84 NW5       30.09S                  
DAYTON         CLOUDY    71  65  81 S10       30.09S                  
WRIGHT-PAT AFB RAIN      69  67  94 S6        30.08F                  
DAYTON GENERAL MOCLDY    68  65  90 CALM      30.08F                  
WILMINGTON     MOCLDY    70  65  84 W8        30.10R                  
$$

OHZ036-037-039>041-045>050-054>059-063>069-073>076-082>088-300700-
  CENTRAL AND SOUTHEAST OHIO
  
CITY           SKY/WX    TMP DP  RH WIND       PRES   REMARKS
COLUMBUS       CLOUDY    72  68  87 SW14G23   30.07S THUNDER FOG      
OSU AIRPORT    FAIR      72  67  84 SW9       30.07S THUNDER          
BOLTON FIELD   TSTM      68  62  79 NW14G21   30.08S                  
RICKENBACK AFB FAIR      71  67  88 S6        30.06F THUNDER          
NEWARK         MOCLDY    69  67  93 NW9       30.08R                  
MARION         FAIR      68  64  87 CALM      30.07F                  
LANCASTER      CLOUDY    71  66  84 NW5       30.08R                  
ZANESVILLE     FAIR      69  63  81 CALM      30.08F                  
NEW PHILLY     FAIR      68  66  93 SE3       30.08F                  
$$

Return to Home page


Western Regional Climate Center, wrcc@dri.edu